Weather History for Milwaukee Timmerman, WI

Change the Weather History Date:

Tuesday, January 7, 2014

  Actual Average Record
Temperature  
Mean Temperature -6 °F -  
Max Temperature 1 °F 25 °F 59 °F (2008)
Min Temperature -14 °F 10 °F -16 °F (1968)
Degree Days  
Heating Degree Days 72    
Moisture  
Dew Point -18 °F    
Average Humidity 62    
Maximum Humidity 71    
Minimum Humidity 47    
Precipitation  
Precipitation 0.00 in - - ()
Sea Level Pressure  
Sea Level Pressure 30.19 in    
Wind  
Wind Speed 13 mph (WSW)    
Max Wind Speed 17 mph    
Max Gust Speed 23 mph    
Visibility 10 miles    
Events      
Averages and records for this station are not official NWS values.
T = Trace of Precipitation, MM = Missing Value Source: NWS Daily Summary

Daily Weather History Graph

Daily Weather History Graph

Search for Another Location

Airport:

Trip Planner

Search our weather history database for the weather conditions in past years. The results will help you decide how hot, cold, wet, or windy it might be!

Date:

Astronomy

Jan. 07, 2014 Rise Set
Actual Time 7:23 AM CST 4:33 PM CST
Civil Twilight 6:51 AM CST 5:05 PM CST
Nautical Twilight 6:15 AM CST 5:41 PM CST
Astronomical Twilight 5:41 AM CST 6:15 PM CST
Moon 11:00 AM CST (1/7) No Moon Set
Length of Visible Light 10h 14m
Length of Day
9h 10m
Waxing Crescent, 46% of the Moon is Illuminated
Jan 7
Waxing Crescent
Jan 7
First Quarter
Jan 15
Full
Jan 23
Last Quarter
Jan 30
New

Hourly Weather History & Observations

Time (CST) Temp. Windchill Dew Point Humidity Pressure Visibility Wind Dir Wind Speed Gust Speed Precip Events Conditions
12:15 AM -13.0 °F -37.5 °F -23.8 °F 59% 30.14 in 10.0 mi West 17.3 mph - N/A   Clear
12:35 AM -13.0 °F -35.2 °F -23.8 °F 59% 30.13 in 10.0 mi West 13.8 mph 18.4 mph N/A   Clear
12:55 AM -13.0 °F -34.3 °F -23.8 °F 59% 30.13 in 10.0 mi West 12.7 mph 17.3 mph N/A   Clear
1:15 AM -13.0 °F -36.8 °F -23.8 °F 59% 30.13 in 10.0 mi West 16.1 mph 20.7 mph N/A   Clear
1:35 AM -13.0 °F -35.2 °F -23.8 °F 59% 30.14 in 10.0 mi West 13.8 mph - N/A   Clear
1:55 AM -13.0 °F -36.0 °F -23.8 °F 59% 30.14 in 10.0 mi West 15.0 mph 21.9 mph N/A   Clear
2:15 AM -14.8 °F -38.3 °F -23.8 °F 64% 30.14 in 10.0 mi West 15.0 mph 20.7 mph N/A   Clear
2:35 AM -14.8 °F -38.3 °F -23.8 °F 64% 30.15 in 10.0 mi West 15.0 mph 19.6 mph N/A   Clear
2:55 AM -14.8 °F -35.6 °F -23.8 °F 64% 30.15 in 10.0 mi West 11.5 mph - N/A   Clear
3:15 AM -14.8 °F -37.5 °F -23.8 °F 64% 30.15 in 10.0 mi West 13.8 mph - N/A   Clear
3:35 AM -14.8 °F -35.6 °F -23.8 °F 64% 30.15 in 10.0 mi West 11.5 mph - N/A   Clear
3:55 AM -14.8 °F -35.6 °F -23.8 °F 64% 30.15 in 10.0 mi West 11.5 mph - N/A   Clear
4:15 AM -14.8 °F -36.6 °F -23.8 °F 64% 30.15 in 10.0 mi WSW 12.7 mph - N/A   Clear
4:35 AM -14.8 °F -34.6 °F -22.0 °F 70% 30.15 in 10.0 mi West 10.4 mph 18.4 mph N/A   Clear
4:55 AM -13.0 °F -34.3 °F -22.0 °F 64% 30.15 in 10.0 mi WSW 12.7 mph - N/A   Clear
5:15 AM -13.0 °F -31.3 °F -22.0 °F 64% 30.16 in 10.0 mi WSW 9.2 mph 17.3 mph N/A   Clear
5:35 AM -14.8 °F -35.6 °F -22.0 °F 70% 30.17 in 10.0 mi WSW 11.5 mph - N/A   Clear
5:55 AM -13.0 °F -36.0 °F -22.0 °F 64% 30.17 in 10.0 mi WSW 15.0 mph 18.4 mph N/A   Clear
6:15 AM -13.0 °F -35.2 °F -22.0 °F 64% 30.17 in 10.0 mi WSW 13.8 mph 18.4 mph N/A   Clear
6:35 AM -13.0 °F -35.2 °F -22.0 °F 64% 30.16 in 10.0 mi WSW 13.8 mph - N/A   Clear
6:45 AM -14.8 °F -34.6 °F -23.8 °F 64% 30.15 in 10.0 mi WSW 10.4 mph - N/A   Clear
7:45 AM -14.8 °F -35.6 °F -22.0 °F 70% 30.18 in 10.0 mi WSW 11.5 mph - N/A   Clear
8:45 AM -11.2 °F -32.9 °F -20.2 °F 64% 30.21 in 10.0 mi WSW 13.8 mph 18.4 mph N/A   Clear
9:45 AM -9.4 °F -29.8 °F -20.2 °F 59% 30.22 in 10.0 mi WSW 12.7 mph 21.9 mph N/A   Clear
10:45 AM -7.6 °F -29.8 °F -18.4 °F 59% 30.21 in 10.0 mi WSW 16.1 mph - N/A   Clear
11:45 AM -5.8 °F -26.8 °F -16.6 °F 60% 30.19 in 10.0 mi West 15.0 mph 21.9 mph N/A   Clear
12:45 PM -0.4 °F -19.2 °F -14.8 °F 51% 30.18 in 10.0 mi West 13.8 mph 20.7 mph N/A   Clear
1:45 PM -0.4 °F -19.2 °F -14.8 °F 51% 30.17 in 10.0 mi WSW 13.8 mph 23.0 mph N/A   Clear
2:45 PM 1.4 °F -17.6 °F -14.8 °F 47% 30.17 in 10.0 mi WSW 15.0 mph - N/A   Clear
3:45 PM -0.4 °F -17.6 °F -14.8 °F 51% 30.18 in 10.0 mi WSW 11.5 mph - N/A   Clear
4:45 PM -0.4 °F -13.4 °F -14.8 °F 51% 30.19 in 10.0 mi WSW 6.9 mph - N/A   Clear
5:45 PM -2.2 °F -15.6 °F -14.8 °F 55% 30.21 in 10.0 mi SW 6.9 mph - N/A   Clear
8:15 PM -0.4 °F -13.4 °F -11.2 °F 60% 30.25 in 10.0 mi WSW 6.9 mph - N/A   Clear
8:35 PM -0.4 °F -14.7 °F -11.2 °F 60% 30.26 in 10.0 mi WSW 8.1 mph - N/A   Clear
8:55 PM -0.4 °F -13.4 °F -11.2 °F 60% 30.26 in 10.0 mi SW 6.9 mph - N/A   Clear
9:15 PM -0.4 °F -13.4 °F -9.4 °F 66% 30.27 in 10.0 mi WSW 6.9 mph - N/A   Clear
9:35 PM -0.4 °F -15.7 °F -9.4 °F 66% 30.28 in 10.0 mi SW 9.2 mph - N/A   Clear
9:55 PM -0.4 °F -13.4 °F -9.4 °F 66% 30.27 in 10.0 mi SW 6.9 mph - N/A   Clear
10:15 PM -0.4 °F -14.7 °F -9.4 °F 66% 30.27 in 10.0 mi SW 8.1 mph - N/A   Clear
10:35 PM -0.4 °F -13.4 °F -9.4 °F 66% 30.27 in 10.0 mi WSW 6.9 mph - N/A   Clear
10:50 PM -0.4 °F -12.0 °F -9.4 °F 66% 30.27 in 10.0 mi West 5.8 mph - N/A   Clear
11:15 PM -0.4 °F -12.0 °F -9.4 °F 66% 30.27 in 10.0 mi WSW 5.8 mph - N/A   Clear
11:35 PM -2.2 °F -14.2 °F -9.4 °F 71% 30.28 in 10.0 mi WSW 5.8 mph - N/A   Clear
11:55 PM -2.2 °F -10.4 °F -9.4 °F 71% 30.26 in 10.0 mi West 3.5 mph - N/A   Clear